Location: Kimberly
(42.5380°N, 114.3640°W)
Time: 11:56:52
(UTC-06:00)

X-37B - Visible Passes

Search period start: 01 August 2021 00:00
Search period end: 11 August 2021 00:00
Orbit: 383 x 392 km, 45.0° (Epoch: 01 July)

Date Brightness Start Highest point End Pass type
(mag) Time Alt. Az. Time Alt. Az. Time Alt. Az.
01 Aug 1.6 05:12:39 21° SSW 05:14:11 34° SSE 05:17:08 10° E visible
02 Aug 2.7 04:16:49 18° ESE 04:16:49 18° ESE 04:18:26 10° E visible
02 Aug 0.6 05:49:09 10° WSW 05:52:20 89° WNW 05:55:33 10° ENE visible
03 Aug 0.7 04:53:14 43° SSW 04:53:59 59° SSE 04:57:08 10° ENE visible
04 Aug 2.8 03:57:21 20° E 03:57:21 20° E 03:58:39 10° E visible
04 Aug 0.9 05:29:37 14° W 05:32:15 65° NNW 05:35:26 10° ENE visible
05 Aug 0.4 04:33:44 82° W 04:33:51 89° NW 04:37:03 10° ENE visible
06 Aug 3.3 03:37:52 16° E 03:37:52 16° E 03:38:39 10° ENE visible
06 Aug 1.2 05:10:08 19° W 05:12:12 54° N 05:15:21 10° ENE visible
07 Aug 1.3 04:14:18 53° NE 04:14:18 53° NE 04:16:57 10° ENE visible
07 Aug 1.2 05:47:30 10° WNW 05:50:38 55° N 05:53:46 10° E visible
08 Aug 3.9 03:18:30 10° ENE 03:18:30 10° ENE 03:18:35 10° ENE visible
08 Aug 1.3 04:50:47 27° WNW 04:52:11 51° N 04:55:18 10° ENE visible
09 Aug 2.5 03:55:05 29° ENE 03:55:05 29° ENE 03:56:52 10° ENE visible
09 Aug 0.9 05:27:25 10° WNW 05:30:36 68° NNE 05:33:46 10° E visible
10 Aug 1.1 04:31:48 51° NNW 04:32:09 55° N 04:35:18 10° E visible
10 Aug 0.8 06:05:42 10° WNW 06:08:50 54° SSW 06:11:57 10° SE visible
